Hlavní strana
METAR-TAF:

METAR-TAF

Letiště :

Atlanta, Georgie, Spojené státy americké

zeměpisná šířka: 33-54-43N, zeměpisná délka: 084-56-26W, výška: 393 m

Aktuální stav počasí

Zpráva byla vytvořena před 27 minutami, v 02:15 UTC
Západoseverozápadní vítr 5 kt
Teplota 11°C
Vlhkost vzduchu 100%
Tlak 1020 hPa
Viditelnost: 8.0 km
Zataženo ve výšce 300 ft
silné mrholení

METAR: KPUJ 190215Z AUTO 30005KT 5SM +DZ OVC003 11/11 A3011 RMK AO2

Čas: 21:42 (02:42 UTC)


TAF: chybějící

Stav a předpovědi počasí z více než 4 000 letišť (zprávy METAR a TAF).

Červené a žluté tečky na mapě představují dostupné meteorologické stanice.

Když kurzor umístíte na tečku, zobrazí se název stanice.

Pak kliknutím zobrazíte stav a předpověď počasí.

Chcete-li změnit mapu, kliknutím na zelené tlačítko se znaménkem +mapu přiblížíte, kliknutím na zelené tlačítko se znaménkem – mapu oddálíte a kliknutím na zelené šipky přejdete na sousední mapy.


METAR-TAF: